Back to catalog

IRIDIUM 147

AliveCommunicationsPO
NORAD 43480·PAYLOAD·🇺🇸 United States

Launched May 22, 2018 from Vandenberg Space Force Base

Loading…

Next Passes (next 24 hours)

TLE

FreshSource: CelesTrak SupGP

Epoch: Sep 14, 2026, 08:44 UTC

1 43480C 18047E   26257.36423611  .00002755  00000+0  98503-3 0  2570
2 43480  86.3944  51.0188 0002105  92.0265  22.2720 14.34211172    12

Track IRIDIUM 147 in real time with AllMySat

Download on the App Store